SCP
1 1 1 1 0 0 0 0 0 0 0 0 0 0 0 0 0 0 0 0 0 0 0 0 0 0 0 0 0 0 0 0 0 0 0 0 0 0 0 0 0 0 0 0 0 0 0 0 0
1 1 1 1 0 0 0 0 0 0 0 0 0 0 0 0 0 0 0 0 0 0 0 0 0 0 0 0 0 0 0 0 0 0 0 0 0 0 0 0 0 0 0 0 0 0 0 0 0
1 1 1 0 0 0 0 0 0 0 0 0 0 0 0 0 0 0 0 0 0 0 0 0 0 0 0 0 0 0 0 0 0 0 0 0 0 0 0 0 0 0 0 0 0 0 0 0 0
1 1 1 0 0 0 0 0 0 0 0 0 0 0 0 0 0 0 0 0 0 0 0 0 0 0 0 0 0 0 0 0 0 0 0 0 0 0 0 0 0 0 0 0 0 0 0 0 0
1 1 0 0 0 0 0 0 0 0 0 0 0 0 0 0 0 0 0 0 0 0 0 0 0 0 0 0 0 0 0 0 0 0 0 0 0 0 0 0 0 0 0 0 0 0 0 0 0
0 0 0 0 0 0 0 0 0 0 0 0 0 0 0 0 0 0 0 0 0 0 0 0 0 0 0 0 0 0 0 0 0 0 0 0 0 0 0 0 0 0 0 0 0 0 0 0 0
0 0 0 0 0 0 0 0 0 0 0 0 0 0 0 0 0 0 0 0 0 0 0 0 0 0 0 0 0 0 0 0 0 0 0 0 0 0 0 0 0 0 0 0 0 0 0 0 0
0 0 0 0 0 0 0 0 0 0 0 0 0 0 0 0 0 0 0 0 0 0 0 0 0 0 0 0 0 0 0 0 0 0 0 0 0 0 0 0 0 0 0 0 0 0 0 0 0
0 0 0 0 0 0 0 0 0 0 0 0 0 0 0 0 0 0 0 0 0 0 0 0 0 0 0 0 0 0 0 0 0 0 0 0 0 0 0 0 0 0 0 0 0 0 0 0 0
0 0 0 0 0 0 0 0 0 0 0 0 0 0 0 0 0 0 0 0 0 0 0 0 0 0 0 0 0 0 0 0 0 0 0 0 0 0 0 0 0 0 0 0 0 0 0 0 0
0 0 0 0 0 0 0 0 0 0 0 0 0 0 0 0 0 0 0 0 0 0 0 0 1 1 1 1 1 1 1 1 0 0 0 0 0 0 0 0 0 0 0 0 0 0 0 0 0
0 0 0 0 0 0 0 0 0 0 0 0 0 0 0 0 0 0 0 0 0 0 0 0 1 1 1 1 1 1 1 1 1 1 0 0 0 0 0 0 0 0 0 0 0 0 0 0 0
0 0 0 0 0 0 0 0 0 0 0 0 0 0 0 0 0 0 0 0 0 0 0 0 1 1 1 1 1 1 1 1 1 1 0 0 0 0 0 0 0 0 0 0 0 0 0 0 0
0 0 0 0 0 0 0 0 1 1 0 0 0 0 1 1 1 0 0 0 0 1 1 1 1 1 1 1 1 1 1 1 1 1 0 0 0 0 0 0 0 0 0 0 0 0 0 0 0
0 0 0 0 0 0 0 1 1 1 0 0 0 0 1 1 1 1 1 1 1 1 1 1 1 1 1 1 1 1 1 1 1 1 0 0 0 0 1 1 0 0 0 0 0 0 0 0 0
0 0 0 0 0 0 0 1 1 1 0 0 0 0 0 0 1 1 1 1 1 1 1 1 1 1 1 1 1 1 1 1 1 1 0 0 0 0 1 1 1 0 0 0 0 0 0 0 0
0 0 0 0 0 0 0 0 1 0 0 0 0 0 0 0 0 1 1 1 1 1 1 1 1 1 1 1 1 1 1 1 1 1 1 0 0 1 1 1 1 0 0 0 0 0 0 0 0
0 0 0 0 0 0 0 0 0 0 0 0 0 0 0 0 0 1 1 2 2 2 2 2 1 2 2 2 2 2 1 1 1 1 1 1 1 1 1 2 1 1 1 1 1 1 0 0 0
0 0 0 0 0 0 0 0 0 0 0 0 0 0 0 0 1 1 1 2 3 3 3 3 2 2 2 3 3 3 3 3 3 3 2 2 1 2 2 2 2 1 1 1 1 1 1 0 0
0 0 0 0 0 0 0 0 0 0 0 0 0 0 0 0 1 1 1 2 3 4 4 4 3 3 3 3 4 5 5 5 5 5 4 3 2 2 2 2 2 1 1 1 1 1 1 0 0
0 0 0 0 0 0 0 0 0 0 0 0 0 0 0 0 0 1 1 1 2 3 4 4 4 4 3 4 5 6 7 8 7 6 5 4 3 2 2 2 1 1 1 1 1 1 1 1 0
0 0 0 0 0 0 0 0 0 1 1 0 0 0 0 0 0 0 1 1 1 2 2 3 3 4 4 4 6 7 7 7 7 6 6 4 3 2 2 2 2 1 1 1 1 1 1 1 1
0 0 0 0 0 0 0 0 0 1 1 1 0 0 0 1 1 1 0 1 1 1 1 1 2 3 3 4 5 5 5 6 6 6 6 5 3 2 2 2 2 1 1 1 1 1 1 1 1
0 0 0 0 0 0 0 0 1 1 1 1 0 0 0 1 1 1 1 0 1 1 1 1 1 2 3 3 4 4 4 4 5 5 5 4 3 3 3 2 2 1 1 1 1 1 1 1 0
0 0 0 0 0 0 0 0 0 0 0 0 0 0 1 1 1 1 0 0 0 1 1 1 1 1 2 2 3 3 3 3 3 3 3 3 3 3 3 2 2 1 1 1 1 1 1 0 0
0 0 0 0 0 0 0 0 0 0 0 0 0 0 1 1 1 0 0 0 0 0 1 1 1 1 1 1 2 2 2 2 2 2 2 2 2 2 2 2 1 1 1 1 1 0 0 0 0
0 0 0 0 0 0 0 0 0 0 0 0 0 0 1 1 1 0 0 0 0 0 1 1 1 1 1 1 1 1 1 1 1 1 1 1 1 1 1 1 1 1 1 1 0 0 0 0 0
0 0 0 0 0 0 0 0 0 0 0 0 0 0 0 0 0 0 0 0 0 0 0 0 0 0 0 0 0 0 0 0 0 0 0 1 1 1 1 1 1 1 0 0 0 0 0 0 0
0 0 0 0 0 0 0 0 0 0 0 0 0 0 0 0 0 0 0 0 0 0 0 0 0 0 0 0 0 0 0 0 0 0 0 0 0 0 1 1 0 0 0 0 0 0 0 0 0
0 0 0 0 0 0 0 0 0 0 0 0 0 0 0 0 0 0 0 0 0 0 0 0 0 0 0 0 0 0 0 0 0 0 0 0 0 0 0 0 0 0 0 0 0 0 0 0 0
Wind_Speed
16 12 9 4 3 1 9 7 7 7 9 9 7 7 13 14 9 7 6 10 18 18 16 15 15 14 12 11 11 10 9 10 10 10 10 10 9 9 9 9 9 9 9 9 8 8 8 8 9
12 8 4 3 2 5 8 7 8 9 6 3 5 11 15 13 12 10 8 11 19 18 15 14 16 14 12 11 10 10 9 10 9 9 9 10 9 8 9 9 9 9 9 9 8 8 8 8 8
13 8 4 3 2 7 8 7 8 7 3 4 6 13 13 8 11 10 8 13 17 17 14 16 17 14 12 11 10 9 9 9 9 9 9 9 9 9 9 9 9 10 9 9 9 8 7 8 8
5 4 4 1 7 8 7 7 6 5 4 4 5 10 13 10 9 13 13 14 16 16 15 16 16 14 13 11 10 9 9 9 9 9 8 8 8 8 8 9 10 10 10 10 9 8 8 8 7
4 4 3 1 7 7 6 7 5 6 7 8 9 14 11 10 14 15 13 14 15 15 15 15 15 14 12 11 10 9 9 9 9 9 8 7 7 7 7 9 9 10 10 9 9 8 8 7 7
4 4 2 1 7 5 3 4 4 6 6 7 8 14 10 10 10 11 12 11 13 15 16 14 15 14 13 12 11 10 10 10 10 9 8 7 7 6 7 8 9 10 10 9 8 7 7 6 7
4 5 3 3 5 3 6 6 6 6 9 12 9 10 11 11 9 10 11 11 12 14 15 13 12 11 12 12 12 11 11 11 11 10 9 8 7 6 8 9 9 9 9 8 6 5 5 5 5
3 6 5 3 4 4 5 3 4 7 6 6 7 11 10 11 9 11 10 10 11 12 14 15 14 12 11 10 11 12 12 12 12 11 10 9 8 7 8 9 9 8 8 7 5 4 3 3 4
4 4 5 5 5 5 5 4 3 1 2 5 11 12 14 12 11 10 8 7 8 9 10 12 13 12 11 11 12 11 11 11 11 10 10 9 6 7 7 9 10 8 7 6 5 5 4 4 5
4 2 2 3 5 5 4 5 6 3 8 8 9 11 14 11 10 10 10 9 9 8 10 9 10 10 9 7 9 6 7 7 7 7 8 6 5 4 7 11 10 9 8 6 7 7 7 6 4
4 3 2 4 8 6 4 4 6 8 9 7 6 6 10 9 8 9 9 9 10 9 8 10 10 9 8 5 6 4 4 5 6 6 8 6 5 4 7 5 6 6 7 5 6 6 6 7 5
4 4 6 6 5 5 5 4 5 8 5 6 7 3 5 9 8 8 9 9 9 9 10 9 10 9 9 8 6 4 3 4 4 6 8 7 4 6 7 6 7 6 5 6 6 6 9 7 7
5 2 1 2 3 3 4 6 1 5 5 6 6 4 1 5 7 5 7 8 9 8 9 9 9 10 9 8 5 6 5 6 6 5 6 6 4 4 4 4 6 6 4 4 3 5 3 2 2
5 6 6 5 5 6 4 6 1 7 6 6 6 6 7 5 0 4 5 5 8 9 9 9 8 8 10 10 7 6 6 5 6 6 7 8 5 4 3 3 5 4 3 4 4 3 4 1 2
6 10 11 11 9 3 2 6 4 5 4 5 7 6 6 6 6 4 2 2 2 7 8 9 9 8 9 12 10 7 5 7 6 6 8 8 6 5 4 3 4 3 3 4 2 0 2 2 3
12 11 11 6 4 5 4 1 7 4 5 5 5 7 5 4 5 5 7 7 7 4 2 7 9 8 7 6 8 7 6 6 5 6 6 8 7 6 5 2 2 2 3 2 2 2 2 1 1
8 6 6 5 6 8 6 3 6 5 4 4 5 7 7 6 8 11 11 9 8 8 7 3 7 8 7 7 6 5 6 7 5 5 5 5 6 6 4 4 1 2 1 1 3 2 1 0 1
11 11 8 4 3 5 11 4 7 6 4 4 5 5 6 8 11 13 14 12 8 6 7 8 5 7 7 5 5 4 4 5 5 5 5 5 3 4 5 4 3 1 2 1 1 2 1 2 1
13 14 14 10 3 6 9 8 1 7 4 3 5 6 8 10 11 12 12 12 11 8 6 6 7 6 5 5 5 6 5 4 5 4 7 6 3 4 6 4 3 1 2 2 1 2 2 1 2
13 14 14 11 8 7 9 11 7 5 5 5 5 7 9 9 10 10 11 12 12 12 11 10 8 8 6 4 6 6 7 5 4 4 4 6 5 4 5 5 3 2 2 2 2 2 2 1 2
13 13 14 14 13 11 13 13 10 7 8 7 6 7 10 10 10 10 10 10 11 11 13 12 13 11 7 5 4 4 4 4 4 4 4 4 4 4 3 5 5 4 4 4 4 4 5 4 3
12 14 16 16 14 11 13 11 6 4 8 10 11 10 9 9 9 9 10 10 10 11 12 12 13 13 9 3 3 5 5 5 5 4 3 4 4 4 4 2 2 2 3 5 6 6 4 4 3
12 15 17 17 14 14 14 12 3 11 13 14 12 12 11 12 11 11 11 10 10 10 10 10 11 11 11 7 3 5 4 3 3 4 5 3 3 3 4 3 1 1 1 4 5 5 5 4 4
14 16 17 12 8 9 7 8 6 9 12 13 14 14 14 14 13 13 12 11 10 10 10 10 10 10 10 9 5 1 3 4 5 5 5 3 2 2 2 3 2 1 2 4 3 3 5 3 3
15 13 6 5 1 2 7 4 9 13 16 15 15 16 15 14 13 13 14 14 13 12 11 9 9 10 10 9 7 5 4 4 4 4 4 3 2 1 1 2 1 1 3 3 3 1 3 4 4
13 11 8 6 7 6 4 5 7 16 18 18 17 17 16 14 12 12 13 12 12 12 11 9 9 9 9 9 8 8 7 5 4 5 4 4 3 2 1 1 1 1 3 4 3 2 2 2 3
10 9 9 7 8 6 3 6 6 20 22 20 18 17 16 14 13 13 12 12 12 11 9 9 8 9 9 9 9 9 9 8 7 7 6 4 3 2 3 1 1 2 4 4 4 3 3 2 1
10 9 6 7 7 6 7 8 11 22 23 21 18 16 14 14 14 13 12 11 9 8 7 8 8 8 9 9 8 8 8 8 7 6 6 4 3 2 1 1 3 4 5 5 5 3 2 1 1
12 12 9 6 5 5 6 5 10 17 18 17 15 14 13 14 13 12 10 10 9 8 8 8 8 8 8 8 7 7 7 6 5 4 3 1 0 1 2 3 4 5 7 8 6 4 2 1 2
11 12 10 5 6 5 3 4 11 14 13 13 13 13 12 12 11 10 10 10 9 9 8 7 6 6 5 5 5 5 5 4 4 3 3 3 3 3 4 4 5 6 7 7 6 5 2 2 3
Wind_Direction
287 259 237 236 259 165 78 76 64 44 56 47 32 50 70 51 47 84 137 153 128 129 134 144 145 143 142 139 136 133 132 129 124 120 118 113 110 107 101 95 93 93 91 85 81 80 84 94 107
289 305 271 231 254 87 83 84 76 57 40 35 42 37 67 65 76 101 146 134 131 132 141 145 147 147 147 146 144 142 136 130 129 129 125 121 120 118 110 99 93 91 92 90 87 85 91 101 114
262 271 259 253 89 81 88 91 95 84 40 25 60 63 53 54 97 123 135 137 135 137 145 141 151 152 153 154 154 151 146 143 142 136 130 128 124 117 111 103 96 93 92 92 88 86 95 110 123
291 283 244 266 81 80 94 104 107 106 96 61 64 79 67 40 84 119 141 150 137 138 138 145 156 158 160 163 162 160 159 156 151 142 138 131 124 118 115 110 102 95 90 86 83 80 87 105 121
264 267 286 68 81 70 61 75 84 77 55 46 70 90 84 67 92 124 152 149 140 138 136 148 156 161 165 168 170 171 169 166 160 154 152 149 139 132 127 122 114 104 95 87 79 75 77 93 111
295 268 308 66 80 70 79 80 71 75 68 48 61 98 95 103 107 135 144 145 144 139 139 146 155 162 170 175 179 181 177 173 171 167 163 157 149 148 140 133 127 117 109 99 86 78 78 91 111
316 299 272 128 90 76 43 16 36 39 50 39 22 82 108 106 117 130 137 150 145 142 141 148 159 165 173 179 182 185 181 178 178 175 167 158 154 154 148 142 137 130 123 116 104 92 90 100 120
293 289 315 55 92 74 42 14 35 22 54 55 38 61 104 114 136 131 144 149 148 150 150 157 163 168 172 180 187 189 186 183 181 177 169 161 160 161 157 156 148 145 140 134 129 126 123 132 148
272 278 357 11 63 52 17 359 47 20 21 59 70 71 99 125 136 133 147 153 153 154 154 156 162 166 172 176 176 182 188 186 179 176 173 169 178 177 178 167 154 161 158 157 164 177 190 194 198
241 309 56 331 33 48 5 359 348 13 36 39 70 100 115 136 146 152 163 166 161 163 159 155 157 157 167 168 154 172 178 174 185 179 174 195 206 198 171 145 162 170 176 185 202 212 218 221 216
278 341 56 55 29 1 340 3 2 31 48 6 28 91 130 149 162 166 173 172 169 175 164 162 162 162 157 144 153 171 170 163 194 182 179 204 193 187 145 160 157 178 191 204 209 220 227 215 209
310 28 11 39 25 325 331 337 23 49 43 351 3 24 149 167 180 180 181 172 166 175 168 169 167 167 164 158 158 163 163 165 178 183 197 206 193 195 168 173 173 184 199 206 193 216 217 213 179
285 294 208 224 248 279 291 282 229 70 12 354 347 350 297 188 178 188 188 170 167 166 169 175 173 174 169 152 158 172 178 175 177 185 206 214 196 202 187 179 167 188 189 170 245 249 183 5 79
338 321 286 254 247 250 259 280 275 62 357 349 352 2 21 21 290 185 207 187 172 163 178 168 174 177 162 155 178 178 180 173 177 180 203 212 197 192 173 186 160 189 173 170 226 247 116 105 60
279 270 263 243 224 206 294 269 98 54 356 355 353 6 32 16 358 347 351 340 198 172 180 168 174 186 183 174 174 170 176 175 183 184 206 208 191 185 174 196 159 187 185 189 221 349 96 107 103
265 260 266 269 199 162 220 226 88 49 16 13 359 350 22 20 344 0 23 5 357 353 231 176 176 184 191 174 167 169 181 178 181 181 204 208 193 185 176 152 147 187 179 167 116 39 43 106 151
289 304 325 17 18 328 278 152 132 88 34 10 10 360 2 4 12 16 11 5 356 348 334 289 184 181 192 180 170 171 179 173 179 179 192 212 194 183 151 135 139 196 152 128 138 153 192 132 150
330 324 314 314 109 303 291 280 131 103 68 23 10 1 11 16 18 14 2 353 341 327 315 308 279 189 190 184 173 174 190 175 175 175 176 198 200 173 135 136 169 229 133 116 113 139 103 42 38
318 304 300 303 250 244 274 293 198 124 107 55 17 16 19 22 15 17 1 351 345 336 320 292 285 256 205 182 180 177 186 186 173 174 175 176 178 140 122 128 139 94 121 146 179 120 94 26 346
327 317 313 315 336 317 297 292 287 147 129 87 33 16 24 22 13 16 7 0 351 348 342 324 302 279 245 209 195 187 177 182 174 164 159 158 162 150 139 140 148 169 162 183 210 151 141 203 243
329 330 335 324 316 298 287 277 259 182 139 106 64 32 25 19 14 13 10 4 352 350 347 339 334 318 277 229 201 193 176 168 165 165 160 154 150 151 152 165 175 194 184 192 209 200 181 197 233
316 336 325 310 301 287 284 288 288 132 99 53 35 25 22 17 15 24 17 6 357 352 346 343 340 334 321 271 211 197 185 184 181 164 151 151 152 148 155 164 170 194 189 194 206 207 186 185 219
319 314 296 283 278 279 280 276 332 45 37 23 9 3 15 16 18 27 22 9 3 360 356 351 348 348 345 334 264 214 192 175 152 137 144 157 148 133 129 115 94 299 275 242 221 190 167 168 195
327 311 291 265 253 263 305 301 51 28 14 6 355 356 9 13 17 24 20 11 4 5 4 1 1 0 356 355 3 114 156 136 132 142 148 140 118 91 111 116 119 250 284 279 262 167 156 171 200
343 336 332 346 318 351 350 19 56 22 12 0 348 354 2 9 16 20 17 10 6 5 2 6 12 12 11 16 25 49 88 108 121 123 133 131 115 91 119 122 130 268 287 294 288 226 169 188 204
339 352 359 336 340 326 343 79 73 17 1 355 350 354 357 4 14 19 15 7 0 1 4 8 20 22 25 33 42 50 61 68 73 79 86 87 82 74 50 83 123 235 270 282 282 278 230 226 225
354 2 332 311 310 310 62 79 29 2 354 351 350 352 354 3 15 12 5 359 354 355 6 15 25 32 36 45 53 59 62 66 67 65 64 65 61 56 38 20 347 275 262 259 262 238 254 255 278
9 349 337 344 354 343 7 44 358 344 342 342 345 349 353 7 10 6 2 357 355 3 21 32 39 40 41 46 53 64 64 64 65 62 55 48 38 24 14 249 229 236 244 251 259 261 264 325 4
12 9 357 355 31 4 345 25 1 335 336 338 345 353 0 9 5 2 4 8 13 28 42 43 45 44 45 48 52 58 59 58 58 55 40 10 294 258 247 243 242 233 232 230 221 213 213 236 286
34 11 3 14 29 22 354 9 348 336 343 350 357 3 5 7 4 5 13 18 23 33 42 43 46 49 45 52 54 51 47 46 37 15 344 321 305 276 250 247 250 244 224 206 185 176 178 203 256